MTN999 KDHN-KLCK

Flight info

Callsign MTN999
Flight time N/A
Altitude 11000
Route LGC RMG VXV HVQ
Aircraft C408/M-SDFGRY/S

Departure

Time 2026-04-14 22:18
Airport Dothan Regional Airport (KDHN)

Arrival

Time N/A
Airport Rickenbacker International Airport (KLCK)
Time Latitude Longitude Altitude Speed Heading
2026-04-14 22:08 31.31861 -85.45057 387 ft 0 kts 356°
2026-04-14 22:14 31.31892 -85.45035 387 ft 5 kts 82°
2026-04-14 22:15 31.31850 -85.44989 386 ft 15 kts 144°
2026-04-14 22:15 31.31784 -85.44922 385 ft 22 kts 136°
2026-04-14 22:15 31.31612 -85.44718 383 ft 22 kts 133°
2026-04-14 22:15 31.31534 -85.44627 384 ft 26 kts 136°
2026-04-14 22:16 31.31399 -85.44473 385 ft 23 kts 134°
2026-04-14 22:16 31.31329 -85.44386 385 ft 11 kts 128°
2026-04-14 22:16 31.31339 -85.44321 384 ft 11 kts 41°
2026-04-14 22:16 31.31395 -85.44272 384 ft 7 kts 33°
2026-04-14 22:17 31.31464 -85.44305 384 ft 24 kts 315°
2026-04-14 22:17 31.31739 -85.44622 382 ft 89 kts 314°
2026-04-14 22:17 31.32282 -85.45243 503 ft 125 kts 314°
2026-04-14 22:17 31.32914 -85.45990 928 ft 128 kts 313°
2026-04-14 22:18 31.33637 -85.46600 1298 ft 135 kts 339°
2026-04-14 22:18 31.34636 -85.46632 1571 ft 152 kts 16°
2026-04-14 22:18 31.35623 -85.46222 2101 ft 149 kts 21°
2026-04-14 22:18 31.36574 -85.45793 2676 ft 145 kts 22°
2026-04-14 22:19 31.37523 -85.45372 3106 ft 150 kts 24°
2026-04-14 22:19 31.39392 -85.44318 3891 ft 152 kts 28°
2026-04-14 22:19 31.40321 -85.43775 4398 ft 146 kts 27°
2026-04-14 22:20 31.41206 -85.43163 4712 ft 152 kts 32°
2026-04-14 22:20 31.42232 -85.42803 4983 ft 158 kts
2026-04-14 22:20 31.43339 -85.42648 5256 ft 163 kts
2026-04-14 22:20 31.44479 -85.42497 5538 ft 166 kts
2026-04-14 22:21 31.45634 -85.42344 5817 ft 168 kts
2026-04-14 22:21 31.46796 -85.42189 6100 ft 169 kts
2026-04-14 22:21 31.47971 -85.42031 6368 ft 171 kts
2026-04-14 22:21 31.49158 -85.41872 6642 ft 173 kts
2026-04-14 22:22 31.50357 -85.41711 6901 ft 174 kts
2026-04-14 22:22 31.51564 -85.41549 7162 ft 176 kts
2026-04-14 22:22 31.52779 -85.41387 7422 ft 176 kts
2026-04-14 22:22 31.53994 -85.41223 7682 ft 175 kts
2026-04-14 22:23 31.55203 -85.41061 7940 ft 175 kts
2026-04-14 22:23 31.56414 -85.40898 8204 ft 175 kts
2026-04-14 22:23 31.57623 -85.40736 8472 ft 175 kts
2026-04-14 22:23 31.58833 -85.40573 8742 ft 175 kts
2026-04-14 22:24 31.60033 -85.40412 9006 ft 176 kts
2026-04-14 22:24 31.61247 -85.40249 9281 ft 176 kts
2026-04-14 22:24 31.62463 -85.40086 9556 ft 176 kts
2026-04-14 22:24 31.63682 -85.39921 9841 ft 177 kts
2026-04-14 22:25 31.64904 -85.39758 10107 ft 176 kts
2026-04-14 22:25 31.66121 -85.39594 10352 ft 176 kts
2026-04-14 22:25 31.67337 -85.39430 10607 ft 176 kts
2026-04-14 22:25 31.68553 -85.39266 10867 ft 176 kts
2026-04-14 22:26 31.69795 -85.39098 10966 ft 186 kts
2026-04-14 22:26 31.71113 -85.38920 10980 ft 195 kts
2026-04-14 22:26 31.72481 -85.38735 10975 ft 201 kts
2026-04-14 22:26 31.73875 -85.38547 10973 ft 203 kts
2026-04-14 22:27 31.75286 -85.38358 10975 ft 206 kts
2026-04-14 22:27 31.76709 -85.38165 10978 ft 205 kts
2026-04-14 22:27 31.78128 -85.37973 10975 ft 206 kts
2026-04-14 22:27 31.79551 -85.37782 10977 ft 206 kts
2026-04-14 22:28 31.80978 -85.37589 10976 ft 206 kts
2026-04-14 22:28 31.82403 -85.37396 10973 ft 206 kts
2026-04-14 22:28 31.83831 -85.37203 10973 ft 206 kts
2026-04-14 22:28 31.85254 -85.37011 10975 ft 206 kts
2026-04-14 22:29 31.86679 -85.36819 10974 ft 206 kts
2026-04-14 22:29 31.88110 -85.36625 10972 ft 206 kts
2026-04-14 22:29 31.89514 -85.36435 10973 ft 206 kts
2026-04-14 22:29 31.90941 -85.36243 10972 ft 206 kts
2026-04-14 22:30 31.92367 -85.36049 10968 ft 206 kts
2026-04-14 22:30 31.93788 -85.35857 10969 ft 205 kts
2026-04-14 22:30 31.95211 -85.35665 10969 ft 206 kts
2026-04-14 22:30 31.96638 -85.35471 10970 ft 206 kts
2026-04-14 22:31 31.98064 -85.35277 10970 ft 206 kts
2026-04-14 22:31 31.99489 -85.35084 10970 ft 206 kts
2026-04-14 22:31 32.00898 -85.34893 10967 ft 206 kts
2026-04-14 22:31 32.02323 -85.34700 10967 ft 206 kts
2026-04-14 22:32 32.03753 -85.34507 10970 ft 207 kts
2026-04-14 22:32 32.05187 -85.34312 10971 ft 207 kts
2026-04-14 22:32 32.06625 -85.34118 10971 ft 209 kts
2026-04-14 22:32 32.08069 -85.33921 10971 ft 209 kts
2026-04-14 22:33 32.09512 -85.33724 10971 ft 208 kts
2026-04-14 22:33 32.10955 -85.33529 10969 ft 209 kts
2026-04-14 22:33 32.12401 -85.33333 10972 ft 209 kts
2026-04-14 22:33 32.13845 -85.33136 10971 ft 209 kts
2026-04-14 22:34 32.15289 -85.32939 10971 ft 209 kts
2026-04-14 22:34 32.16735 -85.32743 10976 ft 209 kts
2026-04-14 22:34 32.18162 -85.32548 10972 ft 209 kts
2026-04-14 22:34 32.19606 -85.32352 10972 ft 209 kts
2026-04-14 22:35 32.21054 -85.32155 10976 ft 208 kts
2026-04-14 22:35 32.22498 -85.31958 10971 ft 209 kts
2026-04-14 22:35 32.23947 -85.31760 10971 ft 209 kts
2026-04-14 22:35 32.25394 -85.31562 10971 ft 209 kts
2026-04-14 22:36 32.26837 -85.31367 10969 ft 209 kts
2026-04-14 22:36 32.28262 -85.31172 10964 ft 209 kts
2026-04-14 22:36 32.29705 -85.30975 10964 ft 208 kts
2026-04-14 22:36 32.31146 -85.30778 10962 ft 208 kts
2026-04-14 22:37 32.32584 -85.30583 10964 ft 208 kts
2026-04-14 22:37 32.34022 -85.30385 10964 ft 208 kts
2026-04-14 22:37 32.35456 -85.30190 10995 ft 207 kts
2026-04-14 22:37 32.36893 -85.29994 10994 ft 207 kts
2026-04-14 22:38 32.38330 -85.29797 10994 ft 208 kts
2026-04-14 22:38 32.39774 -85.29599 10995 ft 208 kts
2026-04-14 22:38 32.41195 -85.29405 10995 ft 208 kts
2026-04-14 22:38 32.42633 -85.29209 10994 ft 208 kts
2026-04-14 22:39 32.44074 -85.29011 10996 ft 208 kts
2026-04-14 22:39 32.45514 -85.28813 10998 ft 208 kts
2026-04-14 22:39 32.46956 -85.28615 10996 ft 208 kts
2026-04-14 22:39 32.48396 -85.28419 10997 ft 208 kts
2026-04-14 22:40 32.49837 -85.28222 10997 ft 208 kts
2026-04-14 22:40 32.51281 -85.28024 10997 ft 209 kts
2026-04-14 22:40 32.52723 -85.27827 10998 ft 208 kts
2026-04-14 22:40 32.54146 -85.27631 10998 ft 208 kts
2026-04-14 22:41 32.55582 -85.27435 10999 ft 207 kts
2026-04-14 22:41 32.57015 -85.27238 10999 ft 207 kts
2026-04-14 22:41 32.58447 -85.27039 10999 ft 207 kts
2026-04-14 22:41 32.59883 -85.26843 10999 ft 208 kts
2026-04-14 22:42 32.61319 -85.26646 10998 ft 208 kts
2026-04-14 22:42 32.62753 -85.26448 10999 ft 208 kts
2026-04-14 22:42 32.64189 -85.26251 10999 ft 207 kts
2026-04-14 22:42 32.65618 -85.26054 11000 ft 207 kts